FW2976 Weather Reports


time (UTC)temp
F
wind
direction
speed
knots
gust
knots
rain 1hr
in
rain 24hr
in
rain mn
in
humidity
%
barometer
mb
20260504130516 46 47 2.6 7.0 0.00 0.01 0.00 47 1011.8
20260504110516 49 120 1.7 9.6 0.00 0.01 0.00 41 1009.8
20260504100520 52 256 0.9 2.6 0.00 0.01 0.00 35 1007.2
20260504081539 52 254 1.7 2.6 0.00 0.01 0.00 34 1006.8
20260504081018 52 253 0.9 2.6 0.00 0.01 0.00 35 1006.7
20260504080524 52 0 0.9 2.6 0.00 0.01 0.00 35 1006.8
20260504050517 53 224 0.9 3.5 0.00 0.01 0.01 37 1007.9
20260504045516 54 273 0.0 2.6 0.00 0.01 0.01 36 1008.0
20260504045021 54 273 0.0 2.6 0.00 0.01 0.01 35 1008.1
20260504044532 54 273 0.9 2.6 0.00 0.01 0.01 35 1008.1
20260504044014 55 273 0.9 2.6 0.00 0.01 0.01 35 1008.2
20260504043518 55 0 0.0 2.6 0.00 0.01 0.01 35 1008.2
20260504043045 55 273 0.9 3.5 0.00 0.01 0.01 34 1008.3
20260504042518 56 273 0.9 3.5 0.00 0.01 0.01 34 1008.3
20260504042017 56 274 1.7 3.5 0.00 0.01 0.01 34 1008.3
20260504041536 56 272 1.7 3.5 0.00 0.01 0.01 34 1008.3
20260504041017 56 273 0.9 3.5 0.00 0.01 0.01 33 1008.3
20260504040514 56 0 0.9 2.6 0.00 0.01 0.01 33 1008.4
20260504040034 56 272 0.9 3.5 0.00 0.01 0.01 32 1008.4
20260504035517 57 272 0.9 6.1 0.00 0.01 0.01 32 1008.5
20260504035014 57 265 2.6 6.1 0.00 0.01 0.01 32 1008.5
20260504034545 57 284 1.7 6.1 0.00 0.01 0.01 32 1008.5
20260504034017 56 312 1.7 5.2 0.00 0.01 0.01 32 1008.4
20260504033517 56 266 1.7 5.2 0.00 0.01 0.01 32 1008.4
20260504033032 57 0 0.0 1.7 0.00 0.01 0.01 32 1008.4
20260504032515 57 0 0.0 2.6 0.00 0.01 0.01 32 1008.4
20260504032018 57 0 0.0 2.6 0.00 0.01 0.01 31 1008.3
20260504031544 57 0 0.0 2.6 0.00 0.01 0.01 32 1008.3
20260504031014 58 267 0.9 3.5 0.00 0.01 0.01 31 1008.3
20260504030517 58 267 1.7 3.5 0.00 0.01 0.01 30 1008.3
20260504030041 59 267 0.9 5.2 0.00 0.01 0.01 29 1008.2
20260504025517 59 267 0.9 5.2 0.00 0.01 0.01 28 1008.3
20260504025017 59 267 1.7 5.2 0.00 0.01 0.01 28 1008.2
20260504024535 59 271 0.0 2.6 0.00 0.01 0.01 29 1008.2
20260504024019 59 0 0.0 1.7 0.00 0.01 0.01 30 1008.1
20260504023517 60 0 0.0 3.5 0.00 0.01 0.01 30 1008.0
20260504023032 60 271 1.7 3.5 0.00 0.01 0.01 30 1008.0
20260504022517 60 271 0.9 2.6 0.00 0.01 0.01 28 1008.0
20260504022015 61 0 0.0 1.7 0.00 0.01 0.01 28 1007.9
20260504021544 61 0 0.0 3.5 0.00 0.01 0.01 28 1008.0
20260504021014 61 0 0.0 3.5 0.00 0.01 0.01 28 1007.9
20260504020516 62 272 0.9 3.5 0.00 0.01 0.01 28 1007.9
20260504020037 62 0 0.0 1.7 0.00 0.01 0.01 28 1008.0
20260504015518 62 269 0.0 1.7 0.00 0.01 0.01 28 1008.1
20260504015015 62 0 0.0 1.7 0.00 0.01 0.01 28 1008.2
20260504014534 63 0 0.0 2.6 0.00 0.01 0.01 27 1008.2
20260504014017 63 0 0.0 2.6 0.00 0.01 0.01 27 1008.2
20260504013517 63 0 0.0 5.2 0.00 0.01 0.01 27 1008.3
20260504013036 63 0 0.9 5.2 0.00 0.01 0.01 26 1008.4
20260504012518 64 308 0.9 3.5 0.00 0.01 0.01 26 1008.5
20260504012017 64 0 0.9 3.5 0.00 0.01 0.01 26 1008.6
20260504011533 64 0 0.0 2.6 0.00 0.01 0.01 25 1008.5
20260504011021 65 0 0.0 2.6 0.00 0.01 0.01 24 1008.7
20260504010516 65 27 0.9 2.6 0.00 0.01 0.01 24 1008.7
20260504010036 66 0 0.0 2.6 0.00 0.01 0.01 23 1008.8
20260504005517 67 47 0.0 6.1 0.00 0.01 0.01 23 1008.9
20260504005016 67 61 0.0 6.1 0.00 0.01 0.01 22 1008.9
20260504004542 68 306 0.0 5.2 0.00 0.01 0.01 21 1008.9
20260504004019 68 269 1.7 5.2 0.00 0.01 0.01 21 1008.9
20260504003516 68 19 0.9 2.6 0.00 0.01 0.01 20 1009.1
20260504003034 68 288 0.9 7.8 0.00 0.01 0.01 20 1009.1
20260504002516 68 338 0.9 8.7 0.00 0.01 0.01 20 1009.1
20260504002016 68 269 2.6 8.7 0.00 0.01 0.01 20 1009.1
20260504001540 68 243 0.9 6.1 0.00 0.01 0.01 19 1009.3
20260504001015 68 0 2.6 7.0 0.00 0.01 0.01 20 1009.3
20260504000517 68 265 0.9 10.4 0.00 0.01 0.01 20 1009.4
20260504000031 68 68 0.9 13.0 0.00 0.01 0.01 21 1009.4
20260503235519 67 285 5.2 13.0 0.00 0.01 0.01 21 1009.6
20260503235017 67 258 7.0 13.0 0.00 0.01 0.01 24 1009.5
20260503234539 67 271 3.5 8.7 0.00 0.01 0.01 23 1009.4
20260503234017 66 10 1.7 8.7 0.00 0.01 0.01 23 1009.4
20260503233518 67 282 4.3 10.4 0.00 0.01 0.01 23 1009.5
20260503233036 67 0 2.6 10.4 0.00 0.01 0.01 23 1009.6
20260503232518 67 234 6.1 13.9 0.00 0.01 0.01 24 1009.9
20260503232018 67 234 6.1 13.9 0.00 0.01 0.01 24 1009.9
20260503231532 67 206 6.1 13.0 0.00 0.01 0.01 25 1010.0
20260503231018 67 239 1.7 13.0 0.00 0.01 0.01 28 1010.1
20260503230517 67 208 4.3 9.6 0.00 0.01 0.01 26 1010.2
20260503230043 67 228 5.2 9.6 0.00 0.01 0.01 26 1010.2
20260503225516 66 236 3.5 9.6 0.00 0.01 0.01 26 1010.2
20260503225016 66 236 4.3 11.3 0.00 0.01 0.01 26 1010.2
20260503224533 66 216 5.2 11.3 0.00 0.01 0.01 27 1010.4
20260503224019 65 217 3.5 7.8 0.00 0.01 0.01 29 1010.5
20260503223522 65 236 4.3 7.8 0.00 0.01 0.01 32 1010.5
20260503223036 65 236 3.5 7.8 0.00 0.01 0.01 32 1010.7
20260503222516 64 238 2.6 7.0 0.00 0.01 0.01 35 1010.8
20260503222013 64 213 4.3 7.0 0.00 0.01 0.01 35 1011.0
20260503221543 63 207 2.6 8.7 0.00 0.01 0.01 35 1011.1
20260503221017 63 270 4.3 8.7 0.00 0.01 0.01 36 1011.3
20260503220517 62 202 3.5 8.7 0.00 0.01 0.01 38 1011.3
20260503220038 62 232 4.3 8.7 0.00 0.01 0.01 39 1011.5
20260503215518 62 247 4.3 8.7 0.00 0.01 0.01 38 1011.6
20260503215014 61 239 3.5 7.8 0.00 0.01 0.01 42 1011.6
20260503214546 60 256 3.5 7.8 0.00 0.01 0.01 44 1011.8
20260503214017 59 260 2.6 7.8 0.00 0.01 0.01 44 1011.8
20260503213518 59 238 4.3 10.4 0.00 0.01 0.01 46 1011.9
20260503213035 58 246 5.2 10.4 0.00 0.01 0.01 48 1012.0
20260503212517 58 250 4.3 9.6 0.00 0.01 0.01 52 1012.2
20260503212018 57 218 4.3 7.8 0.00 0.01 0.01 51 1012.3
20260503211531 56 216 4.3 7.8 0.00 0.01 0.01 56 1012.5
20260503211017 56 190 1.7 9.6 0.00 0.01 0.01 53 1012.5
20260503210515 56 238 4.3 9.6 0.01 0.01 0.01 51 1013.0
20260503210032 56 254 3.5 7.8 0.01 0.01 0.01 54 1013.1
20260503205519 56 234 2.6 8.7 0.01 0.01 0.01 57 1013.1
20260503205021 57 205 3.5 8.7 0.01 0.01 0.01 57 1013.3
20260503204539 56 232 2.6 6.1 0.01 0.01 0.01 60 1013.2
20260503204017 55 241 3.5 6.1 0.01 0.01 0.01 59 1013.1
20260503203521 54 222 2.6 7.0 0.01 0.01 0.01 64 1013.1
20260503203031 53 228 1.7 7.0 0.01 0.01 0.01 63 1013.3
20260503202519 52 223 3.5 7.0 0.01 0.01 0.01 60 1013.5
20260503202017 52 231 0.9 6.1 0.01 0.01 0.01 58 1013.5
20260503201535 52 276 1.7 9.6 0.01 0.01 0.01 60 1013.6
20260503201016 52 248 4.3 11.3 0.01 0.01 0.01 60 1013.8
20260503200517 53 229 7.0 11.3 0.00 0.00 0.00 57 1014.2
20260503200037 54 261 2.6 7.0 0.00 0.00 0.00 49 1014.2
20260503195515 55 44 0.9 7.0 0.00 0.00 0.00 51 1014.0
20260503195018 56 320 0.9 8.7 0.00 0.00 0.00 50 1013.9
20260503194540 57 57 1.7 8.7 0.00 0.00 0.00 46 1013.8
20260503194018 59 38 3.5 8.7 0.00 0.00 0.00 39 1014.0
20260503193515 61 355 2.6 7.0 0.00 0.00 0.00 34 1013.9
20260503193035 62 304 2.6 8.7 0.00 0.00 0.00 31 1013.7
20260503192517 63 260 3.5 8.7 0.00 0.00 0.00 28 1013.4
20260503192014 64 254 4.3 7.8 0.00 0.00 0.00 28 1013.4
20260503191534 64 290 0.9 6.1 0.00 0.00 0.00 29 1013.3
20260503191018 64 68 0.9 9.6 0.00 0.00 0.00 32 1013.4
20260503190518 64 98 3.5 9.6 0.00 0.00 0.00 26 1013.4
20260503190039 65 290 4.3 9.6 0.00 0.00 0.00 27 1013.5
20260503185518 65 95 2.6 10.4 0.00 0.00 0.00 26 1013.5
20260503185020 65 306 4.3 10.4 0.00 0.00 0.00 25 1013.6
20260503184531 65 80 3.5 11.3 0.00 0.00 0.00 28 1013.7
20260503184014 65 267 4.3 11.3 0.00 0.00 0.00 28 1014.0
20260503183517 65 63 1.7 7.8 0.00 0.00 0.00 28 1014.0
20260503183040 65 288 1.7 7.8 0.00 0.00 0.00 29 1014.1
20260503182517 64 55 2.6 7.8 0.00 0.00 0.00 28 1014.2
20260503182015 62 55 1.7 8.7 0.00 0.00 0.00 29 1014.3
20260503181552 62 260 2.6 8.7 0.00 0.00 0.00 31 1014.3
20260503181017 62 229 2.6 8.7 0.00 0.00 0.00 31 1014.5
20260503180516 62 0 0.0 8.7 0.00 0.00 0.00 34 1014.7
20260503180045 62 90 3.5 8.7 0.00 0.00 0.00 33 1014.8
20260503175521 62 85 2.6 8.7 0.00 0.00 0.00 31 1014.9
20260503175018 62 38 4.3 8.7 0.00 0.00 0.00 32 1014.9
20260503174531 62 38 1.7 9.6 0.00 0.00 0.00 34 1015.0
20260503174017 62 227 2.6 9.6 0.00 0.00 0.00 32 1015.0
20260503173517 62 278 3.5 9.6 0.00 0.00 0.00 30 1015.0
20260503173036 62 89 1.7 10.4 0.00 0.00 0.00 32 1015.2
20260503172514 63 93 4.3 10.4 0.00 0.00 0.00 31 1015.1
20260503172017 63 71 4.3 11.3 0.00 0.00 0.00 32 1015.1
20260503171534 63 53 6.1 11.3 0.00 0.00 0.00 31 1015.2
20260503171017 63 113 3.5 9.6 0.00 0.00 0.00 32 1015.2
20260503170516 62 94 1.7 7.8 0.00 0.00 0.00 31 1015.3
20260503150517 59 290 3.5 10.4 0.00 0.00 0.00 35 1016.0